Hourly Data Report for June 08, 2021

ST-JOVITE
QUEBEC
Current Station Operator: ECCC - MSC

46°04'49.000" N
74°33'21.000" W
238.50 m
703GDKB
71376
WJT

Download Data

Hourly Data (June 2021)
Hourly Data Report for June 8, 2021
TIME
LST
Temp Definition
°C
Dew Point Definition
°C
Rel Hum Definition
%
Precip. Amount Definition
mm

Wind Dir Definition
10's deg

Wind Spd Definition
km/h
Visibility Definition
km
Stn Press Definition
kPa
Hmdx Definition


Wind Chill Definition


Weather Definition


00:00 21.4 19.1 87 0.0   0   98.50 28   LegendNANA
01:00 20.4 18.7 90 0.0   0   98.51 27   LegendNANA
02:00 19.4 18.4 94 0.0   0   98.53     LegendNANA
03:00 19.0 18.2 95 0.0   0   98.55     LegendNANA
04:00 18.5 17.8 96 0.0   0   98.57     LegendNANA
05:00 18.4 17.8 96 0.0   0   98.59     LegendNANA
06:00 20.0 19.2 95 0.0   0   98.62 27   LegendNANA
07:00 22.4 20.8 91 0.0 25 2   98.68 31   LegendNANA
08:00 24.2 20.8 82 0.0 25 4   98.70 32   LegendNANA
09:00 24.9 21.0 79 0.0 25 2   98.69 33   LegendNANA
10:00 27.3 21.0 69 0.0 25 4   98.68 36   LegendNANA
11:00 28.9 22.1 67 0.0 23 4   98.69 38   LegendNANA
12:00 28.5 22.1 68 0.0 26 2   98.68 38   LegendNANA
13:00 30.4 21.3 58 0.0 27 3   98.63 39   LegendNANA
14:00 31.7 21.3 54 0.0 25 7   98.54 40   LegendNANA
15:00 31.0 20.7 54 0.0 25 3   98.48 39   LegendNANA
16:00 30.7 18.8 49 0.0 26 2   98.44 37   LegendNANA
17:00 28.4 19.4 58 0.0 0 1   98.45 35   LegendNANA
18:00 27.8 20.6 65 0.0 25 2   98.49 36   LegendNANA
19:00 26.0 21.0 74 0.0   0   98.51 34   LegendNANA
20:00 24.1 21.0 83 0.0 6 1   98.52 33   LegendNANA
21:00 22.9 20.8 88 0.0 0 1   98.59 31   LegendNANA
22:00 22.0 20.5 92 0.0   0   98.60 30   LegendNANA
23:00 21.3 20.5 95 0.0 0 1   98.63 29   LegendNANA

Notes on Data Quality.

Legend

  • E = Estimated
  • M = Missing
  • NA = Not Available*
  • [empty] = Indicates an unobserved value
Date modified: